Weather History for Defiance, OH

Change the Weather History Date:

Tuesday, February 5, 2013

  Actual Average Record
Temperature  
Mean Temperature 21 °F -  
Max Temperature 30 °F 33 °F 57 °F (1938)
Min Temperature 12 °F 14 °F -9 °F (1979)
Degree Days  
Heating Degree Days 44    
Moisture  
Dew Point 18 °F    
Average Humidity 86    
Maximum Humidity 100    
Minimum Humidity 69    
Precipitation  
Precipitation 0.02 in - - ()
Sea Level Pressure  
Sea Level Pressure 29.92 in    
Wind  
Wind Speed 3 mph (SW)    
Max Wind Speed 12 mph    
Max Gust Speed -    
Visibility 4 miles    
Events Fog , Snow    
Averages and records for this station are not official NWS values.
T = Trace of Precipitation, MM = Missing Value Source: NWS Daily Summary

Daily Weather History Graph

Daily Weather History Graph

Search for Another Location

Airport:

Trip Planner

Search our weather history database for the weather conditions in past years. The results will help you decide how hot, cold, wet, or windy it might be!

Date:

Astronomy

Feb. 05, 2013 Rise Set
Actual Time 7:44 AM EST 5:59 PM EST
Civil Twilight 7:15 AM EST 6:28 PM EST
Nautical Twilight 6:42 AM EST 7:01 PM EST
Astronomical Twilight 6:10 AM EST 7:33 PM EST
Moon 3:26 AM EST (2/5) 1:14 PM EST (2/5)
Length of Visible Light 11h 12m
Length of Day
10h 14m
Waning Crescent, 27% of the Moon is Illuminated
Feb 5
Waning Crescent
Feb 10
New
Feb 17
First Quarter
Feb 25
Full
Mar 4
Last Quarter

Hourly Weather History & Observations

Time (EST) Temp. Windchill Dew Point Humidity Pressure Visibility Wind Dir Wind Speed Gust Speed Precip Events Conditions
12:01 AM 21.2 °F 13.6 °F 17.6 °F 86% 29.92 in 7.0 mi North 5.8 mph - N/A   Overcast
12:10 AM 21.2 °F 13.6 °F 17.6 °F 86% 29.92 in 7.0 mi North 5.8 mph - N/A   Overcast
12:53 AM 21.9 °F 17.2 °F 18.0 °F 85% 29.95 in 7.0 mi NNE 3.5 mph - N/A   Overcast
1:53 AM 21.9 °F 17.2 °F 18.0 °F 85% 29.94 in 7.0 mi North 3.5 mph - N/A   Overcast
2:53 AM 21.0 °F - 17.1 °F 85% 29.96 in 6.0 mi Calm Calm - N/A   Overcast
3:53 AM 21.0 °F - 17.1 °F 85% 29.95 in 6.0 mi Calm Calm - N/A   Overcast
4:25 AM 19.4 °F - 17.6 °F 93% 29.92 in 5.0 mi Calm Calm - N/A   Mostly Cloudy
4:53 AM 19.9 °F - 17.1 °F 89% 29.94 in 5.0 mi Calm Calm - N/A   Overcast
5:53 AM 19.0 °F - 16.0 °F 88% 29.94 in 5.0 mi Calm Calm - N/A   Overcast
6:35 AM 17.6 °F - 15.8 °F 93% 29.90 in 2.5 mi Calm Calm - N/A   Scattered Clouds
6:53 AM 18.0 °F - 12.9 °F 81% 29.96 in 2.5 mi Calm Calm - N/A   Haze
7:01 AM 17.6 °F - 14.0 °F 86% 29.93 in 3.0 mi Calm Calm - N/A   Partly Cloudy
7:14 AM 14.0 °F - 12.2 °F 93% 29.94 in 3.0 mi Calm Calm - N/A   Mostly Cloudy
7:27 AM 12.2 °F - 10.4 °F 92% 29.93 in 1.2 mi Calm Calm - N/A   Overcast
7:44 AM 12.2 °F - 8.6 °F 85% 29.92 in 2.5 mi Calm Calm - N/A   Mostly Cloudy
7:46 AM 12.2 °F - 8.6 °F 85% 29.92 in 1.8 mi Calm Calm - N/A   Mostly Cloudy
7:53 AM 12.0 °F - 9.0 °F 88% 29.96 in 1.2 mi Calm Calm - N/A   Mostly Cloudy
8:04 AM 12.2 °F - 8.6 °F 85% 29.93 in 2.0 mi Calm Calm - N/A   Mostly Cloudy
8:11 AM 14.0 °F - 10.4 °F 86% 29.93 in 2.5 mi Calm Calm - N/A   Overcast
8:18 AM 12.2 °F - 10.4 °F 92% 29.93 in 3.0 mi Calm Calm - N/A   Overcast
8:53 AM 14.0 °F - 12.9 °F 95% 29.98 in 4.0 mi Calm Calm - N/A   Overcast
9:00 AM 14.0 °F - 12.2 °F 93% 29.94 in 2.0 mi Calm Calm - N/A   Mostly Cloudy
9:10 AM 14.0 °F - 14.0 °F 100% 29.94 in 3.0 mi Calm Calm - N/A   Mostly Cloudy
9:17 AM 14.0 °F - 12.2 °F 93% 29.94 in 3.0 mi Calm Calm - N/A   Partly Cloudy
9:51 AM 17.6 °F - 15.8 °F 93% 29.93 in 2.5 mi Calm Calm - N/A   Clear
9:53 AM 18.0 °F - 15.1 °F 88% 29.97 in 2.5 mi Calm Calm - N/A   Clear
10:04 AM 17.6 °F - 15.8 °F 93% 29.93 in 3.0 mi Calm Calm - N/A   Partly Cloudy
10:53 AM 21.0 °F 14.6 °F 18.0 °F 88% 29.96 in 3.0 mi SSW 4.6 mph - N/A   Mostly Cloudy
11:53 AM 23.0 °F 13.9 °F 18.0 °F 81% 29.94 in 7.0 mi SSW 8.1 mph - N/A   Mostly Cloudy
12:53 PM 25.0 °F 15.5 °F 19.0 °F 78% 29.91 in 8.0 mi SSW 9.2 mph - N/A   Overcast
1:53 PM 26.1 °F 16.2 °F 19.0 °F 75% 29.88 in 8.0 mi SSW 10.4 mph - N/A   Overcast
2:53 PM 27.0 °F 16.7 °F 19.0 °F 72% 29.87 in 7.0 mi SSW 11.5 mph - N/A   Overcast
3:53 PM 28.0 °F 20.0 °F 19.9 °F 72% 29.86 in 7.0 mi SSW 8.1 mph - N/A   Overcast
4:53 PM 28.9 °F 21.1 °F 19.9 °F 69% 29.87 in 8.0 mi SW 8.1 mph - N/A   Overcast
5:03 PM 28.4 °F 23.3 °F 19.4 °F 69% 29.84 in 2.5 mi WSW 4.6 mph - 0.00 in Snow Light Snow
5:05 PM 28.4 °F 21.2 °F 19.4 °F 69% 29.84 in 1.8 mi WSW 6.9 mph - 0.00 in Snow Light Snow
5:38 PM 26.6 °F 19.1 °F 21.2 °F 80% 29.85 in 0.8 mi SW 6.9 mph - 0.00 in Snow Light Snow
5:53 PM 27.0 °F 21.6 °F 23.0 °F 85% 29.89 in 0.5 mi SW 4.6 mph - 0.01 in Fog , Snow Snow
6:14 PM 26.6 °F 20.0 °F 24.8 °F 93% 29.86 in 1.0 mi SSW 5.8 mph - 0.01 in Snow Light Snow
6:20 PM 26.6 °F 20.0 °F 24.8 °F 93% 29.86 in 2.5 mi SSW 5.8 mph - 0.01 in Snow Light Snow
6:26 PM 26.6 °F 20.0 °F 24.8 °F 93% 29.86 in 1.8 mi SSW 5.8 mph - 0.01 in Snow Light Snow
6:53 PM 27.0 °F 21.6 °F 24.1 °F 89% 29.90 in 2.5 mi SW 4.6 mph - 0.01 in Snow Light Snow
7:32 PM 26.6 °F 21.2 °F 24.8 °F 93% 29.88 in 4.0 mi SSW 4.6 mph - 0.00 in   Overcast
7:53 PM 27.0 °F 20.5 °F 25.0 °F 92% 29.92 in 4.0 mi SSW 5.8 mph - 0.00 in   Overcast
8:53 PM 28.0 °F 21.7 °F 25.0 °F 88% 29.94 in 5.0 mi SW 5.8 mph - N/A   Overcast
9:20 PM 28.4 °F 24.6 °F 26.6 °F 93% 29.92 in 5.0 mi WSW 3.5 mph - N/A   Overcast
9:53 PM 30.0 °F 25.2 °F 26.1 °F 85% 29.97 in 6.0 mi West 4.6 mph - N/A   Overcast
10:11 PM 30.2 °F 24.3 °F 26.6 °F 86% 29.94 in 6.0 mi Variable 5.8 mph - N/A   Overcast
10:53 PM 30.0 °F 25.2 °F 26.1 °F 85% 29.99 in 7.0 mi Variable 4.6 mph - N/A   Overcast